CAPE
0 0 0 0 0 0 0 0 0 0 0 28 34 90 54 69 80 151 246 428 257 191 290 198 84 0 17 5 0 0 195 645 516 714 730 511 401 572 372 553 1194 1531 1497 1503
0 0 0 0 0 0 0 0 0 0 0 56 167 30 1 0 3 26 258 324 382 254 165 159 98 0 5 6 0 151 122 680 406 935 692 373 572 534 526 743 1444 1139 1475 1663
0 0 0 0 0 0 0 0 0 0 0 52 59 48 27 0 0 78 404 212 330 351 252 153 88 19 2 0 46 199 161 731 448 582 429 519 705 968 570 1458 1349 1433 1323 1601
0 0 0 0 0 0 0 0 0 0 0 0 7 82 0 8 90 5 11 285 271 356 296 203 96 54 0 46 238 230 510 1007 372 563 203 298 301 379 371 1203 1277 1183 1637 1651
0 0 0 0 0 0 0 0 0 0 0 0 0 1 59 98 4 0 0 255 155 246 292 237 111 87 0 118 245 396 518 940 551 366 582 361 302 387 907 350 1169 1442 1487 1763
0 0 0 0 0 0 0 0 0 0 0 0 0 0 0 157 9 0 0 90 175 86 257 389 191 123 34 98 180 536 551 702 728 267 475 446 166 750 414 267 1011 1612 1591 1598
0 0 0 0 0 0 0 0 0 0 0 0 0 0 0 13 92 0 0 254 359 261 231 456 449 336 177 61 166 352 684 660 805 725 168 946 231 369 867 821 1040 739 1457 1138
0 0 0 0 0 0 0 0 0 0 0 0 0 0 0 0 153 102 44 86 18 468 392 420 550 563 419 262 133 299 796 834 880 1135 238 374 957 332 588 1091 369 993 409 948
0 0 0 0 0 0 0 0 0 0 0 0 0 0 0 0 0 280 75 1 0 31 525 509 599 563 732 542 304 391 746 1004 1182 940 1175 212 1056 953 397 616 872 652 671 841
0 0 0 0 0 0 0 0 0 0 0 0 0 0 0 0 0 0 117 42 90 72 28 140 670 623 749 719 667 465 823 1156 1392 1165 1400 1042 266 910 627 138 906 781 871 346
0 0 0 0 0 0 0 0 0 0 0 0 0 0 0 0 0 0 159 61 0 0 0 72 9 747 654 748 862 756 752 1341 1645 1649 1363 1278 1056 591 376 650 220 1090 812 1787
0 0 0 0 0 0 0 0 0 0 0 0 0 0 0 0 1 0 0 102 103 9 21 0 0 52 725 732 774 966 909 1164 1669 1849 1634 1470 1650 1116 804 192 1173 1671 1944 1273
0 0 0 0 0 0 0 0 0 0 0 0 0 0 0 0 0 0 0 0 113 294 1 2 53 411 677 730 816 892 968 934 1555 1879 1821 1687 1567 1637 1245 654 839 1608 1352 1730
0 0 0 0 0 0 0 0 0 0 0 0 0 0 0 0 0 1 0 3 3 262 204 265 572 739 863 856 769 841 904 997 1095 1671 1749 1770 1743 1663 1444 1361 632 1427 1989 1688
0 0 0 0 0 0 0 0 0 0 0 0 0 0 0 1 0 0 19 51 0 0 67 120 504 91 295 1331 1095 949 891 852 977 1134 1446 1704 1816 1717 1741 1381 1504 1218 1325 1845
18 13 10 1 0 0 0 0 0 0 0 0 0 0 0 0 1 0 20 197 173 299 194 243 107 558 1134 1418 1548 1503 1190 1072 881 899 1251 1460 1652 1752 1765 1687 1598 1753 1691 1937
55 76 23 4 7 3 0 0 0 0 0 0 0 0 0 0 0 0 20 139 166 167 147 110 54 115 612 312 1384 1853 1625 1338 1132 1062 1195 1288 1603 1652 1739 1876 1555 1839 1854 1956
35 45 51 1 20 6 0 0 0 0 0 0 0 0 0 0 0 0 0 0 18 67 101 162 105 64 49 134 57 2243 2000 1635 1683 1234 1491 1378 1490 1599 1854 1754 1859 1559 1953 1980
29 51 32 24 3 0 0 4 118 108 27 0 110 4 0 0 0 7 88 54 0 37 27 76 177 266 407 617 622 553 2253 1934 1667 1984 1450 1790 1399 1770 1878 1986 1925 1899 1909 2227
99 53 33 23 0 6 1 56 21 11 0 112 51 26 65 60 1 36 49 6 0 3 0 0 0 18 557 994 843 658 592 2435 1939 1672 2090 2000 1689 1807 1996 2061 2091 2108 2145 2194
31 46 12 42 23 6 114 66 27 9 20 35 1 0 2 7 60 74 0 0 0 0 0 0 0 1 233 607 1172 1058 872 914 2589 2134 1859 2278 2570 1947 2326 2417 2457 2451 2437 2548
27 16 23 36 11 3 218 109 55 19 0 0 0 0 2 0 1 0 0 0 0 0 0 0 0 0 9 4 110 1187 1697 1054 1285 2687 2300 2563 2324 2822 2582 2788 2940 2844 2930 2895
21 2 4 49 27 97 47 1 0 4 4 2 2 0 1 9 3 1 0 0 0 0 0 0 2 1 0 1 4 137 1519 2198 1223 1736 2647 2512 3079 2753 2837 3062 3175 3270 3164 3131
0 0 0 0 10 0 0 1 6 1 4 7 5 7 8 15 8 6 2 0 0 2 0 0 1 0 0 0 3 4 57 647 2530 1354 3021 2708 3098 3134 3002 2978 3231 3328 3247 3253
0 0 0 0 1 0 0 4 2 1 0 2 0 2 0 0 0 0 3 3 6 3 2 1 2 0 0 0 0 4 5 120 1925 2897 3020 2924 3012 3025 3203 2823 3244 3292 3246 3223
3 0 0 0 2 3 1 5 3 2 2 1 2 0 0 0 0 0 0 1 8 10 7 9 6 0 0 0 0 4 4 5 890 3120 3092 3045 2838 2978 3001 3007 2670 1623 2405 2234
CIN
-0 -0 -0 -0 -0 -0 -0 -0 -0 -0 -0 -1 -3 -131 -153 -135 -143 -80 -14 -1 -29 -35 -2 -3 -8 -0 -84 -62 -0 -0 -12 -8 -6 -5 -5 -8 -8 -6 -32 -21 -11 -7 -2 -2
-0 -0 -0 -0 -0 -0 -0 -0 -0 -0 -0 -3 -37 -151 -73 -0 -21 -149 -6 -1 -5 -18 -11 -8 -26 -0 -23 -56 -0 -30 -34 -11 -19 -2 -6 -8 -6 -5 -12 -23 -9 -13 -3 -1
-0 -0 -0 -0 -0 -0 -0 -0 -0 -0 -0 -4 -4 -124 -111 -0 -47 -150 -27 -2 -2 -13 -22 -33 -54 -88 -12 -0 -119 -55 -47 -16 -27 -12 -13 -8 -4 -7 -9 -10 -9 -9 -2 -1
-0 -0 -0 -0 -0 -0 -0 -0 -0 -0 -0 -0 -2 -4 -0 -58 -135 -20 -201 -5 -4 -1 -2 -27 -63 -88 -0 -135 -78 -79 -29 -6 -45 -14 -38 -18 -11 -8 -7 -6 -8 -13 -1 -2
-0 -0 -0 -0 -0 -0 -0 -0 -0 -0 -0 -0 -0 -1 -19 -131 -162 -0 -0 -18 -7 -2 -6 -59 -124 -118 -0 -96 -91 -84 -53 -10 -45 -48 -19 -25 -20 -11 -3 -6 -5 -13 -11 -1
-0 -0 -0 -0 -0 -0 -0 -0 -0 -0 -0 -0 -0 -0 -0 -73 -72 -0 -8 -146 -17 -21 -3 -35 -91 -82 -76 -76 -95 -58 -80 -58 -46 -85 -51 -37 -42 -10 -3 -9 -11 -11 -15 -8
-0 -0 -0 -0 -0 -0 -0 -0 -0 -0 -0 -0 -0 -0 -0 -6 -149 -0 -0 -79 -4 -18 -23 -31 -49 -59 -91 -124 -148 -122 -101 -86 -68 -68 -117 -29 -74 -26 -14 -7 -10 -13 -8 -16
-0 -0 -0 -0 -0 -0 -0 -0 -0 -0 -0 -0 -0 -0 -0 -0 -34 -117 -117 -327 -6 -6 -7 -28 -73 -97 -128 -133 -166 -157 -121 -111 -83 -42 -141 -102 -36 -53 -30 -10 -6 -4 -10 -4
-0 -0 -0 -0 -0 -0 -0 -0 -0 -0 -0 -0 -0 -0 -0 -0 -0 -28 -64 -9 -0 -198 -18 -15 -31 -87 -112 -116 -180 -169 -144 -124 -80 -87 -61 -156 -44 -39 -55 -26 -8 -11 -9 -10
-0 -0 -0 -0 -0 -0 -0 -0 -0 -0 -0 -0 -0 -0 -0 -0 -0 -0 -29 -152 -177 -118 -176 -178 -21 -57 -81 -118 -125 -139 -118 -121 -87 -92 -50 -87 -177 -74 -51 -130 -22 -19 -12 -20
-0 -0 -0 -0 -0 -0 -0 -0 -0 -0 -0 -0 -0 -0 -0 -0 -0 -0 -46 -113 -0 -0 -0 -101 -19 -23 -96 -80 -89 -126 -120 -76 -51 -36 -56 -56 -85 -118 -127 -64 -153 -34 -35 -6
-0 -0 -0 -0 -0 -0 -0 -0 -0 -0 -0 -0 -0 -0 -0 -0 -10 -0 -0 -98 -105 -157 -313 -0 -0 -145 -69 -88 -106 -120 -123 -98 -76 -47 -45 -53 -34 -77 -93 -250 -37 -12 -8 -21
-1 -0 -0 -0 -0 -0 -0 -0 -0 -0 -0 -0 -2 -0 -0 -0 -28 -0 -0 -0 -30 -198 -112 -83 -193 -157 -61 -102 -113 -123 -132 -154 -67 -38 -29 -26 -36 -38 -69 -161 -87 -19 -38 -28
-0 -0 -0 -0 -0 -0 -0 -0 -0 -0 -0 -0 -0 -0 -0 -0 -0 -27 -0 -4 -6 -15 -149 -120 -136 -24 -18 -63 -121 -132 -125 -120 -102 -58 -56 -48 -59 -61 -75 -64 -170 -33 -15 -42
-0 -0 -0 -0 -0 -0 -0 -0 -0 -0 -0 -0 -0 -0 -0 -11 -12 -0 -181 -75 -0 -0 -8 -20 -14 -197 -81 -28 -98 -126 -112 -131 -111 -90 -104 -114 -89 -67 -45 -70 -70 -90 -67 -40
-4 -4 -5 -4 -0 -0 -0 -0 -0 -0 -0 -0 -0 -0 -0 -0 -10 -0 -162 -168 -52 -32 -33 -52 -54 -35 -20 -29 -50 -90 -103 -112 -124 -120 -125 -92 -72 -58 -50 -60 -50 -39 -45 -41
-4 -4 -10 -3 -4 -9 -0 -0 -0 -0 -0 -0 -0 -0 -0 -0 -1 -0 -79 -90 -155 -45 -96 -104 -140 -91 -47 -55 -41 -32 -63 -78 -116 -132 -112 -130 -97 -94 -80 -49 -69 -33 -52 -46
-6 -4 -10 -4 -6 -2 -0 -0 -0 -0 -0 -0 -0 -0 -0 -0 -0 -0 -0 -0 -166 -17 -83 -142 -172 -201 -78 -67 -36 -14 -20 -50 -73 -125 -89 -124 -128 -133 -86 -68 -48 -76 -35 -57
-5 -7 -8 -1 -2 -2 -1 -2 -5 -7 -8 -0 -25 -7 -0 -0 -0 -24 -102 -100 -0 -66 -69 -143 -163 -186 -213 -165 -90 -111 -15 -71 -83 -75 -135 -116 -167 -127 -112 -94 -78 -66 -53 -34
-5 -7 -19 -23 -1 -2 -0 -17 -33 -37 -0 -60 -72 -60 -62 -54 -0 -88 -100 -55 -0 -79 -0 -0 -0 -382 -230 -154 -172 -125 -138 -12 -90 -126 -120 -98 -125 -109 -120 -120 -99 -71 -61 -80
-6 -6 -15 -3 -1 -2 -13 -26 -41 -18 -24 -88 -92 -0 -1 -52 -13 -136 -0 -0 -0 -0 -0 -0 -0 -226 -248 -229 -169 -116 -114 -126 -51 -104 -95 -77 -59 -130 -100 -93 -72 -64 -53 -36
-1 -2 -1 -2 -5 -4 -13 -23 -8 -11 -0 -0 -0 -0 -1 -0 -0 -0 -0 -0 -0 -0 -0 -0 -0 -0 -401 -156 -380 -229 -86 -163 -155 -42 -78 -48 -84 -51 -61 -58 -42 -45 -29 -24
-1 -0 -0 -1 -4 -17 -55 -0 -4 -0 -0 -0 -0 -0 -1 -1 -1 -1 -0 -0 -0 -0 -0 -1 -0 -0 -0 -0 -0 -449 -211 -65 -125 -107 -62 -64 -22 -47 -45 -39 -34 -25 -20 -19
-0 -0 -0 -0 -2 -0 -0 -0 -0 -0 -0 -0 -4 -1 -1 -1 -0 -1 -1 -0 -0 -1 -0 -0 -0 -0 -0 -0 -0 -0 -540 -482 -106 -136 -42 -71 -33 -31 -45 -41 -35 -25 -29 -25
-0 -0 -0 -0 -1 -0 -0 -0 -0 -0 -0 -0 -1 -4 -0 -5 -0 -4 -0 -0 -0 -1 -0 -0 -0 -0 -0 -0 -0 -0 -0 -637 -206 -48 -29 -47 -31 -37 -28 -54 -36 -35 -32 -42
-0 -0 -0 -0 -0 -0 -0 -0 -0 -0 -0 -0 -0 -0 -0 -0 -0 -0 -0 -0 -0 -0 -0 -0 -0 -0 -0 -0 -0 -0 -0 -0 -309 -29 -19 -21 -35 -24 -34 -39 -71 -231 -93 -88
Wind_Speed
13 19 21 25 27 35 36 35 33 31 35 28 26 9 7 22 27 22 8 15 23 30 32 26 22 21 17 16 14 13 8 7 5 8 30 29 27 27 23 12 23 22 21 19
18 29 25 26 30 30 38 37 35 33 34 16 16 14 10 15 35 30 9 20 21 27 33 26 24 23 20 16 16 14 10 8 7 4 31 29 28 25 26 19 24 19 22 21
26 24 20 30 29 32 32 37 35 33 31 19 22 16 18 14 22 34 38 17 24 28 33 27 27 24 22 18 18 16 12 10 8 11 30 31 28 23 22 12 12 22 22 22
29 32 31 24 33 31 36 32 36 37 36 37 30 33 16 16 10 37 32 18 29 26 29 25 28 26 24 17 17 16 12 11 10 24 18 33 31 30 28 20 19 18 20 23
30 30 31 36 28 33 36 33 33 34 40 40 44 39 21 12 17 12 40 36 27 27 28 26 28 28 25 20 18 16 14 12 13 23 24 33 34 31 20 9 23 14 22 24
32 32 30 36 37 30 33 35 36 38 38 47 44 44 40 16 13 9 17 42 25 26 27 26 25 26 27 22 20 17 18 15 13 18 37 23 36 33 29 29 4 8 19 25
31 35 34 29 32 35 29 31 37 41 41 51 40 45 43 22 12 9 14 47 25 23 22 22 25 24 29 29 26 21 21 19 18 17 30 37 28 37 33 30 5 18 19 20
33 30 29 31 32 32 33 32 37 41 41 48 41 49 46 44 15 14 16 30 35 19 19 21 25 26 29 30 28 25 21 20 20 17 24 16 11 40 36 31 32 24 27 19
29 34 29 21 30 31 37 38 38 45 45 48 44 39 42 38 37 17 17 17 26 36 17 19 21 23 22 24 27 26 22 20 19 20 17 19 14 33 38 36 33 32 31 23
27 37 31 29 24 29 34 39 39 41 51 55 46 45 41 30 34 32 19 16 15 36 37 33 19 20 20 20 20 21 21 20 19 18 17 17 20 21 20 33 33 34 31 33
30 34 38 34 33 32 36 42 43 41 42 54 52 47 36 32 28 29 20 17 19 25 50 44 44 21 22 20 19 21 20 18 19 19 18 18 18 19 23 19 26 12 38 27
28 32 41 40 38 37 36 43 40 45 44 43 50 51 40 27 25 28 29 14 16 12 17 12 56 47 24 24 22 24 21 20 18 18 18 18 18 18 20 23 15 12 12 21
27 32 42 43 40 38 43 39 42 43 47 50 49 45 48 36 29 24 27 26 17 13 16 13 47 47 26 25 22 23 24 24 18 16 19 19 19 19 21 21 18 16 15 15
29 37 41 45 37 32 36 39 42 44 49 49 54 46 42 35 25 22 22 22 23 14 20 17 23 18 22 19 21 20 21 21 19 16 16 20 20 19 19 18 20 17 14 14
30 42 41 46 46 40 41 42 41 43 51 51 47 47 46 30 28 24 23 25 22 25 23 27 26 16 39 20 20 18 18 19 19 19 17 17 19 20 19 19 18 19 20 16
30 40 39 46 44 43 45 45 45 44 47 49 53 51 43 34 24 39 25 23 21 16 17 20 22 24 17 17 19 17 19 17 18 19 20 14 18 19 19 19 19 19 18 18
30 34 36 47 42 42 51 46 44 45 45 46 50 47 43 38 25 25 27 21 22 21 23 23 23 22 19 22 27 23 17 16 18 19 18 18 15 17 18 18 19 19 19 18
31 35 30 38 37 48 44 42 43 48 51 46 48 50 47 43 35 33 32 27 25 28 27 27 28 29 21 11 36 38 16 16 14 19 16 18 17 18 17 18 18 19 19 19
10 31 30 35 37 40 40 35 29 32 40 41 38 45 51 50 46 29 25 23 24 31 28 30 30 32 33 31 29 21 14 15 16 15 22 19 21 18 18 19 19 19 19 19
16 26 20 29 33 37 35 24 29 31 41 26 29 33 33 34 52 33 23 26 29 30 30 32 32 34 35 34 34 32 32 19 17 23 21 17 18 17 19 20 18 17 19 19
7 21 28 32 33 34 26 25 25 37 37 32 31 32 29 28 26 29 32 31 26 31 33 32 32 33 33 34 34 41 40 38 19 16 16 17 17 19 17 17 16 16 17 18
5 10 18 18 20 34 22 28 30 28 34 35 35 35 34 31 29 29 27 28 30 31 32 31 32 32 32 33 34 36 42 42 35 21 18 18 20 17 17 17 17 17 16 17
10 10 10 13 11 21 22 28 31 32 36 37 39 39 38 36 34 32 34 32 32 31 31 31 32 31 31 31 32 34 32 40 39 34 22 20 19 19 19 18 18 18 17 17
10 15 4 6 3 31 33 34 33 34 37 37 38 40 39 37 34 34 36 37 35 32 32 31 30 31 31 31 32 33 34 35 38 36 25 23 22 19 19 20 19 18 19 18
19 16 8 6 13 33 27 31 33 36 35 35 34 34 34 36 36 34 34 35 37 36 34 31 31 31 31 31 32 32 32 33 35 33 25 25 23 20 20 20 19 19 20 20
19 24 21 13 18 18 12 26 28 30 31 32 33 34 33 35 37 35 34 33 33 34 34 33 31 31 31 31 31 31 31 29 29 30 28 27 25 24 22 21 24 25 20 25
Wind_Direction
255 258 259 260 259 253 253 256 260 261 247 263 264 254 260 268 265 255 145 152 152 161 163 153 149 147 142 139 142 143 222 168 170 120 193 190 187 172 152 80 180 151 116 98
260 258 263 263 259 260 253 254 259 263 255 263 273 269 262 190 210 235 165 157 157 157 166 155 155 153 152 148 147 149 172 190 161 165 189 200 197 156 183 130 151 122 172 135
257 269 262 259 261 260 260 255 259 261 266 266 270 268 271 279 250 228 215 162 164 161 167 159 162 159 157 156 154 156 165 207 178 240 175 202 214 224 150 109 101 187 164 178
262 260 263 260 258 260 259 263 260 261 262 258 262 265 258 270 232 220 230 163 170 166 164 162 164 164 163 164 160 161 174 216 205 161 161 201 206 201 190 143 142 128 142 176
266 262 260 259 264 258 260 263 264 262 257 261 251 260 278 227 258 207 238 196 169 172 168 167 168 168 165 164 165 167 175 211 223 165 211 192 199 200 191 128 159 122 159 186
270 268 263 262 259 264 263 263 263 263 260 254 251 252 253 245 241 229 206 202 171 171 172 168 167 167 167 165 168 169 173 184 208 174 193 187 189 209 217 205 111 109 146 184
270 265 266 271 262 257 260 260 256 256 255 250 258 255 253 275 223 211 210 199 176 173 176 172 166 167 169 170 170 173 174 179 183 183 176 222 174 201 218 224 131 148 151 151
271 267 264 260 259 259 254 254 253 254 255 254 259 253 254 255 242 213 188 226 231 182 182 181 172 170 169 170 169 173 178 181 183 189 180 191 215 208 221 227 223 239 181 161
275 265 287 263 259 256 255 250 254 258 260 255 258 262 260 260 261 227 230 249 250 234 219 190 183 177 176 173 172 171 177 188 188 190 200 193 222 189 225 225 227 230 224 252
280 273 273 277 270 262 257 257 254 253 252 251 256 256 258 257 257 260 246 242 219 223 245 246 203 189 184 182 178 175 175 188 196 198 207 208 195 187 247 193 238 230 237 226
284 274 267 273 264 260 260 256 255 261 255 250 252 254 261 278 256 256 246 246 259 278 241 237 232 210 185 188 186 181 180 183 199 202 204 213 209 200 190 249 187 197 222 252
286 280 266 264 265 269 267 257 257 252 253 257 254 251 252 294 293 254 255 233 240 229 219 258 213 207 184 184 185 180 182 182 189 207 216 210 221 212 201 194 207 208 242 258
291 277 270 264 265 267 263 257 256 258 254 252 252 253 247 274 291 273 257 261 260 216 211 219 194 197 180 184 184 180 180 182 186 208 221 227 218 214 201 202 209 206 206 252
288 273 267 261 264 281 264 258 256 255 250 251 249 253 250 262 286 294 287 275 267 233 201 217 199 226 186 191 184 185 182 182 185 194 220 226 220 214 214 217 209 220 223 220
285 271 268 264 262 270 266 260 258 255 249 250 249 248 245 262 297 287 299 291 281 260 266 260 256 240 214 192 187 188 188 185 184 187 199 208 220 227 227 222 222 216 208 218
288 271 271 264 263 265 261 260 257 256 253 252 250 250 252 266 310 263 290 295 292 279 277 274 273 266 234 227 211 202 190 191 188 187 188 222 232 229 228 223 230 225 217 215
287 277 272 262 264 265 257 253 257 255 254 253 250 249 251 261 283 274 276 290 294 291 282 281 277 282 259 247 254 235 208 205 193 192 193 196 222 215 212 228 224 229 218 222
283 275 274 269 267 257 258 259 260 258 251 255 256 255 254 255 262 268 266 266 283 295 284 277 277 274 283 311 231 215 224 216 206 191 200 200 206 203 208 213 220 220 229 221
222 273 271 269 262 262 262 261 261 266 252 252 268 261 254 252 255 268 278 271 274 277 286 278 277 278 276 280 272 280 227 209 198 204 191 196 198 208 207 205 209 226 230 233
205 208 273 272 265 258 257 272 273 272 247 270 274 270 267 269 247 249 273 272 275 279 278 277 277 275 275 277 274 271 262 242 204 192 195 207 202 210 206 205 210 224 234 233
170 198 209 266 268 263 270 277 277 251 249 275 274 273 273 261 263 261 258 262 279 282 274 281 276 273 276 279 279 262 257 253 242 232 224 218 215 202 210 213 219 218 221 241
136 152 184 189 259 263 291 272 263 274 274 275 272 269 269 267 271 263 265 268 270 274 272 275 274 274 278 279 278 271 256 251 259 246 233 234 210 220 214 214 226 225 224 222
84 98 150 169 167 301 292 278 274 276 276 275 273 268 267 266 265 266 262 266 269 274 269 273 275 277 279 282 278 270 269 259 255 259 237 238 237 220 227 220 227 236 232 228
55 26 135 197 265 273 286 283 282 279 276 272 273 265 264 262 265 266 265 267 273 278 279 282 282 279 278 283 278 272 272 267 256 253 243 241 245 236 226 239 229 233 237 235
32 34 59 169 222 276 305 289 287 281 278 273 270 265 264 264 264 265 269 270 269 267 269 274 278 278 279 281 279 275 275 272 260 247 242 242 247 242 241 231 234 227 243 246
45 27 24 39 247 260 227 272 280 277 276 275 268 265 266 264 263 265 268 271 272 267 269 272 276 278 279 279 278 278 276 271 262 252 245 247 250 252 247 239 251 259 256 261